K6OUA-11 Weather Reports


time (UTC)temp
C
wind
direction
speed
KPH
gust
KPH
rain 1hr
cm
rain 24hr
cm
rain mn
cm
humidity
%
barometer
mb
20260505041707 13 199 0.0 8.0 0.00 0.00 0.00 80
20260505041507 13 202 0.0 8.0 0.00 0.00 0.00 80
20260505040900 13 265 6.4 8.0 0.00 0.00 0.00 79
20260505040658 13 248 1.6 8.0 0.00 0.00 0.00 79
20260505040254 13 239 0.0 6.4 0.00 0.00 0.00 79
20260505040052 13 229 0.0 6.4 0.00 0.00 0.00 79
20260505035648 13 237 1.6 12.9 0.00 0.00 0.00 80
20260505035446 13 270 4.8 12.9 0.00 0.00 0.00 80
20260505035245 13 284 1.6 12.9 0.00 0.00 0.00 80
20260505035043 13 264 9.7 12.9 0.00 0.00 0.00 79
20260505034841 13 115 3.2 12.9 0.00 0.00 0.00 79
20260505034639 13 239 1.6 20.9 0.00 0.00 0.00 80
20260505034437 13 277 3.2 20.9 0.00 0.00 0.00 80
20260505034235 13 254 4.8 16.1 0.00 0.00 0.00 81
20260505034033 13 229 3.2 16.1 0.00 0.00 0.00 83
20260505033830 13 296 11.3 16.1 0.00 0.00 0.00 83
20260505033627 13 265 8.0 9.7 0.00 0.00 0.00 83
20260505033427 14 293 6.4 9.7 0.00 0.00 0.00 83
20260505033224 13 272 8.0 11.3 0.00 0.00 0.00 83
20260505033024 13 268 8.0 11.3 0.00 0.00 0.00 82
20260505032821 13 272 6.4 12.9 0.00 0.00 0.00 82
20260505032620 13 281 6.4 12.9 0.00 0.00 0.00 82
20260505032418 13 264 3.2 12.9 0.00 0.00 0.00 82
20260505032215 13 270 6.4 14.5 0.00 0.00 0.00 82
20260505032014 13 271 12.9 14.5 0.00 0.00 0.00 82
20260505031812 13 248 9.7 14.5 0.00 0.00 0.00 82
20260505031408 13 250 11.3 14.5 0.00 0.00 0.00 81
20260505031207 13 284 8.0 17.7 0.00 0.00 0.00 81
20260505030803 13 250 8.0 17.7 0.00 0.00 0.00 80
20260505030601 13 255 8.0 17.7 0.00 0.00 0.00 80
20260505030359 13 260 14.5 17.7 0.00 0.00 0.00 79
20260505030155 14 270 8.0 14.5 0.00 0.00 0.00 78
20260505025955 14 272 6.4 14.5 0.00 0.00 0.00 79
20260505025753 14 284 9.7 16.1 0.00 0.00 0.00 78
20260505025551 14 257 8.0 16.1 0.00 0.00 0.00 78
20260505025349 14 277 8.0 16.1 0.00 0.00 0.00 78
20260505025147 14 262 8.0 17.7 0.00 0.00 0.00 78
20260505024945 14 272 6.4 17.7 0.00 0.00 0.00 77
20260505024742 14 248 6.4 17.7 0.00 0.00 0.00 77
20260505024540 14 243 14.5 17.7 0.00 0.00 0.00 78
20260505024138 14 284 9.7 20.9 0.00 0.00 0.00 78
20260505023934 14 271 17.7 20.9 0.00 0.00 0.00 78
20260505023732 14 255 11.3 20.9 0.00 0.00 0.00 78
20260505023530 14 229 16.1 20.9 0.00 0.00 0.00 78
20260505023128 15 258 11.3 20.9 0.00 0.00 0.00 77
20260505022926 15 275 12.9 20.9 0.00 0.00 0.00 77
20260505022725 15 258 11.3 24.1 0.00 0.00 0.00 77
20260505022522 15 260 8.0 24.1 0.00 0.00 0.00 78
20260505022320 15 282 4.8 19.3 0.00 0.00 0.00 78
20260505021513 15 274 11.3 19.3 0.00 0.00 0.00 77
20260505021311 15 262 12.9 17.7 0.00 0.00 0.00 77
20260505020907 15 241 9.7 17.7 0.00 0.00 0.00 76
20260505020705 15 116 1.6 14.5 0.00 0.00 0.00 75
20260505020504 15 227 6.4 14.5 0.00 0.00 0.00 75
20260505020100 15 98 4.8 20.9 0.00 0.00 0.00 75
20260505015858 15 262 4.8 20.9 0.00 0.00 0.00 75
20260505015454 15 195 1.6 9.7 0.00 0.00 0.00 76
20260505015253 15 226 1.6 11.3 0.00 0.00 0.00 76
20260505015050 15 195 0.0 11.3 0.00 0.00 0.00 76
20260505014849 15 229 9.7 11.3 0.00 0.00 0.00 76
20260505014647 15 248 6.4 6.4 0.00 0.00 0.00 76
20260505014444 15 268 0.0 6.4 0.00 0.00 0.00 75
20260505014243 15 222 1.6 14.5 0.00 0.00 0.00 75
20260505013839 15 288 1.6 14.5 0.00 0.00 0.00 76
20260505013637 15 286 4.8 14.5 0.00 0.00 0.00 76
20260505013435 15 257 6.4 14.5 0.00 0.00 0.00 76
20260505013233 15 268 3.2 14.5 0.00 0.00 0.00 76
20260505013031 15 250 8.0 14.5 0.00 0.00 0.00 76
20260505012829 15 278 8.0 14.5 0.00 0.00 0.00 76
20260505012628 15 267 9.7 20.9 0.00 0.00 0.00 76
20260505012426 15 261 11.3 20.9 0.00 0.00 0.00 76
20260505012022 15 267 17.7 20.9 0.00 0.00 0.00 75
20260505011820 15 262 11.3 12.9 0.00 0.00 0.00 74
20260505011618 15 268 12.9 12.9 0.00 0.00 0.00 74
20260505011416 16 254 14.5 12.9 0.00 0.00 0.00 72
20260505011214 16 116 0.0 16.1 0.00 0.00 0.00 73
20260505011011 16 220 1.6 16.1 0.00 0.00 0.00 73
20260505010811 16 195 0.0 14.5 0.00 0.00 0.00 73
20260505010608 16 264 3.2 14.5 0.00 0.00 0.00 74
20260505010407 16 260 12.9 14.5 0.00 0.00 0.00 73
20260505010203 16 260 9.7 20.9 0.00 0.00 0.00 72
20260505010003 16 151 4.8 20.9 0.00 0.00 0.00 72
20260505005801 16 253 9.7 22.5 0.00 0.00 0.00 71
20260505005559 16 246 14.5 22.5 0.00 0.00 0.00 70
20260505005357 16 253 8.0 22.5 0.00 0.00 0.00 69
20260505004550 16 262 16.1 22.5 0.00 0.00 0.00 67
20260505004347 16 255 16.1 22.5 0.00 0.00 0.00 67
20260505004146 16 206 4.8 20.9 0.00 0.00 0.00 67
20260505003944 16 174 11.3 20.9 0.00 0.00 0.00 67
20260505003742 16 264 12.9 25.7 0.00 0.00 0.00 66
20260505003538 16 237 3.2 25.7 0.00 0.00 0.00 66
20260505003339 16 157 11.3 25.7 0.00 0.00 0.00 66
20260505003134 16 293 12.9 20.9 0.00 0.00 0.00 66
20260505002934 16 277 11.3 20.9 0.00 0.00 0.00 65
20260505002731 17 258 12.9 24.1 0.00 0.00 0.00 66
20260505002530 17 255 3.2 24.1 0.00 0.00 0.00 65
20260505002328 17 262 12.9 24.1 0.00 0.00 0.00 65
20260505002127 16 250 14.5 22.5 0.00 0.00 0.00 64
20260505001925 17 260 11.3 22.5 0.00 0.00 0.00 63
20260505001519 17 244 14.5 22.5 0.00 0.00 0.00 62
20260505001319 17 306 3.2 19.3 0.00 0.00 0.00 62
20260505001117 17 261 12.9 19.3 0.00 0.00 0.00 63
20260505000913 17 260 12.9 19.3 0.00 0.00 0.00 60
20260505000510 18 322 1.6 16.1 0.00 0.00 0.00 59
20260505000310 18 261 12.9 24.1 0.00 0.00 0.00 58
20260505000107 18 254 8.0 24.1 0.00 0.00 0.00 59
20260504235906 18 295 3.2 24.1 0.00 0.00 0.00 60
20260504235704 17 264 14.5 25.7 0.00 0.00 0.00 60
20260504235502 17 255 14.5 25.7 0.00 0.00 0.00 60
20260504235058 17 262 17.7 25.7 0.00 0.00 0.00 58
20260504234856 17 262 17.7 25.7 0.00 0.00 0.00 58
20260504234654 18 271 3.2 19.3 0.00 0.00 0.00 60
20260504234457 18 298 4.8 19.3 0.00 0.00 0.00 60
20260504234250 17 267 9.7 24.1 0.00 0.00 0.00 60
20260504234048 18 261 9.7 24.1 0.00 0.00 0.00 60
20260504233847 17 286 4.8 24.1 0.00 0.00 0.00 59
20260504233645 18 258 20.9 20.9 0.00 0.00 0.00 60
20260504233443 18 202 1.6 20.9 0.00 0.00 0.00 61
20260504233241 18 261 4.8 19.3 0.00 0.00 0.00 60
20260504232837 17 265 11.3 19.3 0.00 0.00 0.00 59
20260504232635 17 264 19.3 22.5 0.00 0.00 0.00 61
20260504232231 17 257 19.3 30.6 0.00 0.00 0.00 59
20260504232030 17 257 12.9 30.6 0.00 0.00 0.00 58
20260504231828 17 261 12.9 30.6 0.00 0.00 0.00 58
20260504231626 17 261 11.3 25.7 0.00 0.00 0.00 59
20260504231422 17 264 19.3 25.7 0.00 0.00 0.00 58
20260504231222 17 257 12.9 22.5 0.00 0.00 0.00 58
20260504231020 17 243 17.7 22.5 0.00 0.00 0.00 58
20260504230818 18 255 14.5 16.1 0.00 0.00 0.00 57
20260504230614 18 161 3.2 16.1 0.00 0.00 0.00 58
20260504230414 18 258 8.0 16.1 0.00 0.00 0.00 57
20260504230212 18 217 1.6 27.4 0.00 0.00 0.00 57
20260504230010 18 209 3.2 27.4 0.00 0.00 0.00 58
20260504225808 18 250 11.3 27.4 0.00 0.00 0.00 57
20260504225607 18 226 16.1 27.4 0.00 0.00 0.00 56
20260504225405 18 260 6.4 27.4 0.00 0.00 0.00 56
20260504225203 18 215 3.2 27.4 0.00 0.00 0.00 57
20260504225001 18 354 3.2 27.4 0.00 0.00 0.00 57
20260504224759 18 261 16.1 19.3 0.00 0.00 0.00 58
20260504224558 18 260 4.8 19.3 0.00 0.00 0.00 57
20260504224356 18 303 4.8 19.3 0.00 0.00 0.00 57
20260504224154 18 246 11.3 14.5 0.00 0.00 0.00 57
20260504223548 18 236 3.2 16.1 0.00 0.00 0.00 58
20260504223346 18 299 4.8 16.1 0.00 0.00 0.00 56
20260504223144 18 184 9.7 20.9 0.00 0.00 0.00 57
20260504222940 19 254 3.2 20.9 0.00 0.00 0.00 54
20260504222740 18 253 9.7 19.3 0.00 0.00 0.00 56
20260504222538 19 278 8.0 19.3 0.00 0.00 0.00 56
20260504222336 19 289 12.9 19.3 0.00 0.00 0.00 55
20260504222134 19 229 6.4 29.0 0.00 0.00 0.00 54
20260504221731 18 313 1.6 25.7 0.00 0.00 0.00 55
20260504221529 18 247 14.5 25.7 0.00 0.00 0.00 56
20260504221327 18 258 11.3 25.7 0.00 0.00 0.00 56
20260504221127 18 157 4.8 25.7 0.00 0.00 0.00 55
20260504220721 18 243 22.5 40.2 0.00 0.00 0.00 55
20260504220519 18 261 6.4 40.2 0.00 0.00 0.00 53
20260504220318 18 279 27.4 29.0 0.00 0.00 0.00 55
20260504215914 18 250 22.5 29.0 0.00 0.00 0.00 53
20260504215711 19 262 8.0 35.4 0.00 0.00 0.00 52
20260504215509 18 281 9.7 35.4 0.00 0.00 0.00 53
20260504215308 18 258 20.9 30.6 0.00 0.00 0.00 54
20260504215106 18 240 8.0 30.6 0.00 0.00 0.00 56
20260504214904 18 255 27.4 30.6 0.00 0.00 0.00 54
20260504214702 18 254 30.6 35.4 0.00 0.00 0.00 54
20260504214500 18 264 22.5 35.4 0.00 0.00 0.00 53
20260504214258 18 262 22.5 35.4 0.00 0.00 0.00 53
20260504214056 18 265 22.5 35.4 0.00 0.00 0.00 52
20260504213855 18 222 16.1 35.4 0.00 0.00 0.00 56
20260504213653 18 247 19.3 38.6 0.00 0.00 0.00 55
20260504213249 18 243 20.9 33.8 0.00 0.00 0.00 55
20260504213047 18 264 6.4 33.8 0.00 0.00 0.00 53
20260504212845 18 250 14.5 33.8 0.00 0.00 0.00 53
20260504212643 18 279 22.5 33.8 0.00 0.00 0.00 53
20260504212441 18 267 29.0 33.8 0.00 0.00 0.00 52
20260504212239 18 247 14.5 27.4 0.00 0.00 0.00 51
20260504212038 18 257 22.5 27.4 0.00 0.00 0.00 51
20260504211836 19 264 12.9 27.4 0.00 0.00 0.00 50
20260504211432 18 247 20.9 33.8 0.00 0.00 0.00 50
20260504211230 18 291 20.9 40.2 0.00 0.00 0.00 50
20260504211028 19 248 29.0 40.2 0.00 0.00 0.00 52
20260504210826 18 268 25.7 40.2 0.00 0.00 0.00 52
20260504210624 18 258 20.9 33.8 0.00 0.00 0.00 50
20260504210423 18 292 11.3 33.8 0.00 0.00 0.00 50
20260504210221 18 247 19.3 37.0 0.00 0.00 0.00 51
20260504210019 19 243 14.5 37.0 0.00 0.00 0.00 50
20260504205817 18 246 22.5 33.8 0.00 0.00 0.00 50
20260504205413 18 261 24.1 33.8 0.00 0.00 0.00 48
20260504205009 19 254 16.1 35.4 0.00 0.00 0.00 49
20260504204808 19 260 27.4 29.0 0.00 0.00 0.00 49
20260504204606 19 272 14.5 29.0 0.00 0.00 0.00 48
20260504204402 19 271 12.9 29.0 0.00 0.00 0.00 49
20260504204203 19 254 22.5 32.2 0.00 0.00 0.00 51
20260504203352 19 272 27.4 30.6 0.00 0.00 0.00 44
20260504203152 19 255 20.9 32.2 0.00 0.00 0.00 45
20260504202950 19 272 12.9 32.2 0.00 0.00 0.00 48
20260504202748 19 194 1.6 30.6 0.00 0.00 0.00 49
20260504202547 19 243 12.9 30.6 0.00 0.00 0.00 48
20260504202345 19 254 20.9 30.6 0.00 0.00 0.00 48
20260504202143 18 248 14.5 35.4 0.00 0.00 0.00 49
20260504201941 18 281 14.5 35.4 0.00 0.00 0.00 48
20260504201738 18 267 14.5 29.0 0.00 0.00 0.00 48
20260504201540 18 284 17.7 29.0 0.00 0.00 0.00 46
20260504201133 18 271 12.9 30.6 0.00 0.00 0.00 48
20260504200931 18 260 16.1 30.6 0.00 0.00 0.00 51
20260504200729 18 267 24.1 22.5 0.00 0.00 0.00 50
20260504200527 19 262 20.9 22.5 0.00 0.00 0.00 48
20260504200325 19 282 12.9 22.5 0.00 0.00 0.00 49
20260504200123 18 267 17.7 33.8 0.00 0.00 0.00 50
20260504195921 18 255 12.9 33.8 0.00 0.00 0.00 49
20260504195720 18 255 17.7 25.7 0.00 0.00 0.00 50
20260504195517 18 262 19.3 25.7 0.00 0.00 0.00 49
20260504195316 19 264 19.3 27.4 0.00 0.00 0.00 50
20260504194710 19 274 11.3 20.9 0.00 0.00 0.00 47
20260504194509 19 268 17.7 20.9 0.00 0.00 0.00 48
20260504194305 19 247 9.7 24.1 0.00 0.00 0.00 49
20260504194105 19 185 1.6 24.1 0.00 0.00 0.00 49
20260504193903 19 267 6.4 24.1 0.00 0.00 0.00 52
20260504193701 18 258 16.1 22.5 0.00 0.00 0.00 50
20260504193457 18 246 20.9 22.5 0.00 0.00 0.00 49
20260504193257 19 258 20.9 22.5 0.00 0.00 0.00 49
20260504193053 18 260 11.3 22.5 0.00 0.00 0.00 49
20260504192853 18 278 9.7 22.5 0.00 0.00 0.00 49
20260504192652 18 275 14.5 32.2 0.00 0.00 0.00 49
20260504192248 18 270 22.5 29.0 0.00 0.00 0.00 49
20260504192046 18 262 16.1 29.0 0.00 0.00 0.00 50
20260504191846 18 262 12.9 29.0 0.00 0.00 0.00 51
20260504191440 18 281 29.0 25.7 0.00 0.00 0.00 51
20260504191240 18 278 17.7 29.0 0.00 0.00 0.00 49
20260504191036 18 250 9.7 29.0 0.00 0.00 0.00 50
20260504190834 18 246 17.7 29.0 0.00 0.00 0.00 50
20260504190632 18 254 19.3 29.0 0.00 0.00 0.00 50
20260504190229 18 247 19.3 19.3 0.00 0.00 0.00 49
20260504190027 18 271 14.5 19.3 0.00 0.00 0.00 49
20260504185825 18 282 14.5 19.3 0.00 0.00 0.00 53
20260504185623 18 272 9.7 22.5 0.00 0.00 0.00 52
20260504185421 18 272 12.9 22.5 0.00 0.00 0.00 53
20260504185219 18 306 1.6 20.9 0.00 0.00 0.00 53
20260504184816 18 261 8.0 12.9 0.00 0.00 0.00 50
20260504184614 18 233 1.6 12.9 0.00 0.00 0.00 52
20260504184410 18 239 3.2 12.9 0.00 0.00 0.00 51
20260504184210 18 258 3.2 16.1 0.00 0.00 0.00 53
20260504184006 18 187 4.8 16.1 0.00 0.00 0.00 53
20260504183804 18 188 12.9 17.7 0.00 0.00 0.00 52
20260504183604 18 277 3.2 17.7 0.00 0.00 0.00 53
20260504183402 18 210 1.6 17.7 0.00 0.00 0.00 55
20260504183200 18 225 8.0 19.3 0.00 0.00 0.00 57
20260504182958 18 22 1.6 19.3 0.00 0.00 0.00 55
20260504182756 17 260 12.9 19.3 0.00 0.00 0.00 55
20260504182554 17 206 16.1 19.3 0.00 0.00 0.00 56
20260504182353 17 271 12.9 19.3 0.00 0.00 0.00 52
20260504182149 17 262 9.7 19.3 0.00 0.00 0.00 52
20260504181949 18 296 3.2 19.3 0.00 0.00 0.00 55
20260504181745 18 222 11.3 14.5 0.00 0.00 0.00 54
20260504181545 18 262 9.7 14.5 0.00 0.00 0.00 53
20260504181343 18 265 11.3 14.5 0.00 0.00 0.00 54
20260504181141 18 261 3.2 16.1 0.00 0.00 0.00 56
20260504180942 18 202 1.6 16.1 0.00 0.00 0.00 55
20260504180737 17 182 9.7 22.5 0.00 0.00 0.00 57
20260504180535 17 260 6.4 22.5 0.00 0.00 0.00 57
20260504180332 17 167 4.8 22.5 0.00 0.00 0.00 59
20260504180132 17 257 17.7 25.7 0.00 0.00 0.00 57
20260504175934 17 282 8.0 25.7 0.00 0.00 0.00 58
20260504175726 17 271 19.3 17.7 0.00 0.00 0.00 56
20260504175526 17 267 24.1 17.7 0.00 0.00 0.00 57
20260504175324 17 268 16.1 17.7 0.00 0.00 0.00 59
20260504175122 17 270 14.5 25.7 0.00 0.00 0.00 58
20260504174920 17 257 12.9 25.7 0.00 0.00 0.00 55
20260504174718 17 261 22.5 17.7 0.00 0.00 0.00 54
20260504174517 17 258 8.0 17.7 0.00 0.00 0.00 55
20260504174113 18 296 1.6 11.3 0.00 0.00 0.00 56
20260504173911 17 230 0.0 11.3 0.00 0.00 0.00 57
20260504173709 17 227 6.4 20.9 0.00 0.00 0.00 58
20260504173507 17 281 1.6 20.9 0.00 0.00 0.00 58
20260504173305 17 288 4.8 19.3 0.00 0.00 0.00 61
20260504173103 17 203 3.2 19.3 0.00 0.00 0.00 60
20260504172901 17 289 4.8 19.3 0.00 0.00 0.00 61
20260504172700 17 251 3.2 16.1 0.00 0.00 0.00 58
20260504172458 17 282 9.7 16.1 0.00 0.00 0.00 59
20260504172256 17 254 11.3 16.1 0.00 0.00 0.00 61
20260504172052 17 209 6.4 16.1 0.00 0.00 0.00 62
20260504171852 17 199 3.2 16.1 0.00 0.00 0.00 61
20260504171650 17 275 3.2 19.3 0.00 0.00 0.00 63
20260504171448 16 258 12.9 19.3 0.00 0.00 0.00 63
20260504171246 16 220 8.0 20.9 0.00 0.00 0.00 64
20260504171045 16 286 12.9 20.9 0.00 0.00 0.00 65
20260504170439 16 264 11.3 22.5 0.00 0.00 0.00 63
20260504170237 16 203 1.6 17.7 0.00 0.00 0.00 63
20260504160340 16 80 0.0 9.7 0.00 0.00 0.00 67
20260504160139 16 150 4.8 12.9 0.00 0.00 0.00 67
20260504151052 14 73 3.2 4.8 0.00 0.00 0.00 78
20260504150849 14 127 3.2 4.8 0.00 0.00 0.00 78
20260504150648 14 109 4.8 9.7 0.00 0.00 0.00 79
20260504150244 13 115 4.8 3.2 0.00 0.00 0.00 78
20260504141157 12 147 0.0 0.0 0.00 0.00 0.00 91
20260504140955 11 147 0.0 0.0 0.00 0.00 0.00 91
20260504140753 11 147 0.0 0.0 0.00 0.00 0.00 91
20260504140351 11 147 0.0 0.0 0.00 0.00 0.00 91
20260504130656 11 74 0.0 0.0 0.00 0.00 0.00 90
20260504130454 11 74 0.0 0.0 0.00 0.00 0.00 90
20260504130252 11 74 0.0 0.0 0.00 0.00 0.00 90
20260504120155 12 208 0.0 0.0 0.00 0.00 0.00 89
20260504110703 12 226 0.0 0.0 0.00 0.00 0.00 89
20260504110459 12 226 0.0 0.0 0.00 0.00 0.00 89
20260504110259 12 226 0.0 0.0 0.00 0.00 0.00 88
20260504100606 13 133 0.0 4.8 0.00 0.00 0.00 87
20260504100404 13 212 0.0 4.8 0.00 0.00 0.00 87
20260504100202 13 178 0.0 0.0 0.00 0.00 0.00 87
20260504081823 13 260 0.0 0.0 0.00 0.00 0.00 85
20260504081624 13 260 0.0 0.0 0.00 0.00 0.00 85
20260504081421 13 260 0.0 0.0 0.00 0.00 0.00 85
20260504081219 13 260 0.0 0.0 0.00 0.00 0.00 85
20260504081017 13 260 0.0 0.0 0.00 0.00 0.00 85
20260504080815 13 260 0.0 0.0 0.00 0.00 0.00 85
20260504080614 13 260 0.0 0.0 0.00 0.00 0.00 85
20260504080412 13 260 0.0 0.0 0.00 0.00 0.00 85
20260504080210 13 260 0.0 0.0 0.00 0.00 0.00 86
20260504060217 13 260 0.0 0.0 0.00 0.00 0.00 84
20260504050725 13 240 0.0 6.4 0.00 0.00 0.00 83
20260504050322 13 272 1.6 8.0 0.00 0.00 0.00 83
20260504050121 13 274 1.6 8.0 0.00 0.00 0.00 83
20260504045918 13 272 4.8 8.0 0.00 0.00 0.00 83
20260504045716 13 275 6.4 8.0 0.00 0.00 0.00 83
20260504045514 13 278 4.8 8.0 0.00 0.00 0.00 83
20260504045312 13 279 4.8 3.2 0.00 0.00 0.00 82
20260504045110 13 240 0.0 3.2 0.00 0.00 0.00 82
20260504044909 13 260 0.0 3.2 0.00 0.00 0.00 82
20260504044707 13 247 0.0 3.2 0.00 0.00 0.00 82
20260504044505 13 244 0.0 3.2 0.00 0.00 0.00 82
20260504044304 13 260 1.6 0.0 0.00 0.00 0.00 82
20260504044102 13 254 0.0 0.0 0.00 0.00 0.00 82
20260504043859 13 254 0.0 0.0 0.00 0.00 0.00 82